Wind_Speed
17 18 19 20 21 22 24 26 27 26 26 26 27 27 27 27 27 27 27 27 27 27 27 27 27 28 28 29 29 29 28 27 27 26 25 25 24 23 23 23 23 23
15 16 17 18 19 20 21 23 24 25 25 25 25 26 26 26 26 27 27 27 27 27 27 27 27 29 29 30 31 31 31 31 30 30 29 29 28 27 27 27 27 27
14 15 16 16 17 18 19 20 21 23 23 24 24 24 24 25 25 25 26 26 26 27 27 26 27 28 29 30 31 32 33 33 33 33 32 32 31 31 30 30 30 30
12 13 14 15 16 16 17 18 19 20 21 21 22 22 22 23 23 24 24 25 25 25 26 26 26 27 28 29 30 31 32 33 33 33 33 33 33 33 33 32 33 33
11 12 13 13 14 15 15 16 17 17 18 19 20 20 20 20 21 22 23 23 24 24 25 25 26 26 27 28 29 30 31 32 32 32 33 33 34 34 34 34 34 34
6 8 10 11 12 13 14 14 14 14 15 16 18 18 18 18 18 19 20 21 22 22 23 24 25 25 26 26 27 28 29 30 30 31 31 32 33 33 34 34 34 34
2 3 6 8 11 13 13 13 13 13 12 13 14 15 16 16 16 17 18 19 20 21 22 22 23 24 24 25 25 26 27 28 28 29 29 30 31 32 32 33 33 32
3 2 2 4 8 12 14 14 13 13 12 11 12 12 13 14 15 15 16 17 18 19 20 21 22 22 22 23 23 24 25 26 26 27 27 28 29 30 30 30 31 31
7 6 4 2 4 8 11 13 12 12 12 11 11 11 11 13 14 14 15 16 17 18 18 19 20 20 21 21 21 22 23 24 24 25 25 25 26 27 27 28 28 28
10 9 7 4 3 4 6 8 9 9 11 10 10 10 10 11 13 14 15 15 16 17 18 18 18 18 19 19 19 19 20 21 22 22 23 23 23 24 24 25 25 26
13 11 10 7 5 4 3 3 4 6 7 8 8 8 10 11 12 13 14 15 14 15 17 17 17 16 17 16 16 17 17 18 19 19 20 20 21 21 22 22 23 23
14 13 12 10 9 7 5 2 3 5 6 5 5 5 6 9 11 12 13 13 13 13 14 15 15 15 15 15 14 14 15 15 16 16 17 18 18 18 19 19 20 20
13 14 14 13 11 11 10 8 5 5 6 5 3 2 1 5 10 11 11 12 12 11 11 12 12 13 13 13 13 13 13 13 13 13 14 14 15 15 16 17 17 17
16 15 15 15 14 12 13 12 10 8 8 8 8 6 4 3 7 8 8 10 11 10 9 9 9 10 10 11 11 11 11 11 11 11 11 11 12 12 12 13 14 14
21 19 17 17 16 15 14 14 14 14 12 11 11 11 10 7 4 4 5 7 8 8 8 7 7 7 8 9 10 10 10 10 10 10 9 9 9 9 9 9 10 11
25 24 22 20 19 18 17 16 16 17 17 16 14 13 14 12 10 7 5 3 3 3 4 5 6 6 7 9 9 9 9 9 8 8 7 7 7 7 6 6 6 7
30 29 27 25 23 21 20 19 18 18 19 19 18 18 18 17 16 14 12 10 7 5 3 3 5 6 6 7 8 9 9 9 8 7 6 5 5 4 4 3 3 3
34 33 32 30 28 26 24 22 21 20 19 21 21 21 21 22 21 20 17 15 14 12 9 7 6 5 7 7 7 7 8 8 8 7 7 5 4 3 3 2 2 2
38 37 36 36 34 32 30 28 26 24 22 22 24 24 24 24 24 23 20 18 17 16 15 13 10 8 9 8 8 7 7 7 7 7 6 6 5 4 3 2 2 3
43 42 41 41 40 39 36 33 32 30 26 24 25 26 25 25 25 25 23 21 20 19 18 17 15 13 13 12 11 10 9 8 7 7 7 7 6 6 5 5 4 4
47 46 45 44 42 41 40 37 36 34 30 27 28 29 28 28 28 27 25 23 21 20 20 19 17 16 16 15 15 14 14 12 10 8 7 8 8 8 7 7 6 6
48 48 47 46 44 42 41 40 38 37 34 31 31 32 32 31 31 30 29 26 23 22 23 22 20 19 19 18 17 17 17 16 15 13 12 11 10 10 10 9 9 9
49 50 50 49 48 46 45 44 42 41 39 36 35 35 35 34 34 33 32 30 27 26 26 25 22 22 22 21 20 19 19 19 19 19 19 18 18 16 14 13 12 12
51 53 54 53 53 52 50 49 48 47 45 42 39 38 38 37 37 36 35 33 32 31 30 29 27 25 25 25 24 23 23 23 23 23 23 23 23 23 20 17 15 14
55 56 57 57 57 56 55 55 55 53 50 47 44 43 41 41 41 40 38 36 35 34 34 34 33 31 29 29 29 28 28 28 28 27 26 24 24 25 24 20 18 17
59 59 59 59 59 58 58 58 58 56 54 52 50 49 47 46 45 45 43 40 39 39 38 38 38 37 35 34 34 33 33 33 32 32 30 28 27 26 26 25 23 23
Wind_Direction
94 92 89 85 83 84 85 86 87 85 83 82 82 82 82 81 79 78 77 76 76 76 77 77 77 76 76 76 76 75 74 74 74 74 74 73 72 72 71 71 71 71
94 93 93 92 89 87 86 86 87 87 85 83 82 81 80 80 79 77 76 74 73 72 72 73 74 74 72 72 73 73 72 72 72 72 72 72 72 72 72 72 73 73
90 90 90 92 92 92 91 89 88 88 87 86 84 82 80 79 78 77 76 74 73 71 70 69 70 70 70 69 69 70 70 70 70 70 70 70 70 71 71 71 72 73
92 90 88 89 90 90 91 92 91 90 89 88 85 83 81 79 78 77 76 75 74 72 71 69 69 69 68 68 67 68 68 69 69 69 70 70 70 70 71 70 71 72
98 97 93 89 88 87 86 87 88 89 88 88 87 85 82 80 79 78 77 76 75 73 73 71 70 69 68 68 67 67 66 67 68 68 69 70 70 71 72 72 72 72
96 101 101 99 96 93 89 86 85 87 88 87 87 86 85 83 81 80 79 78 77 76 74 73 72 72 71 70 69 67 66 66 67 67 68 69 70 71 73 74 74 75
93 107 110 111 112 110 104 98 92 89 89 91 90 89 88 86 83 82 81 81 80 78 77 76 75 74 74 73 71 70 69 68 67 67 67 69 71 72 74 76 78 79
186 180 144 131 133 126 118 114 110 102 98 97 98 97 94 90 85 81 81 81 80 80 79 78 77 77 76 75 74 73 72 71 70 70 69 70 72 73 75 78 80 83
204 200 187 162 153 143 128 119 115 112 108 105 105 105 102 98 92 86 81 80 80 80 79 79 79 79 78 78 77 76 75 74 74 74 74 74 76 77 79 81 83 86
212 205 197 177 153 168 154 132 117 109 107 108 108 107 107 103 97 93 86 81 80 79 78 78 79 80 80 79 78 78 77 78 78 78 79 81 82 84 85 87 88 90
219 211 205 190 169 183 194 169 155 136 117 109 107 110 112 109 102 96 91 85 83 82 80 77 76 76 77 77 77 77 77 78 80 82 83 85 87 89 92 94 95 96
225 219 213 203 194 199 202 206 221 197 162 129 108 107 117 119 114 105 99 92 87 86 85 82 78 75 74 75 74 74 74 74 76 79 83 87 91 94 96 98 100 101
227 223 220 215 210 208 205 205 220 215 202 201 184 148 131 139 129 117 110 107 99 94 93 91 88 83 79 78 77 75 74 72 71 72 75 81 88 95 99 102 104 105
224 222 224 223 220 218 216 216 223 218 207 211 217 224 245 184 140 123 120 120 112 107 104 100 100 98 94 90 86 84 81 77 75 74 72 73 78 84 94 101 107 112
227 225 226 228 226 226 225 224 230 229 214 205 214 225 231 222 187 151 137 129 119 116 118 119 122 120 117 112 102 96 94 90 87 85 82 81 80 79 84 93 104 114
233 232 230 230 230 231 232 230 231 233 226 217 216 220 223 226 230 231 216 181 145 128 134 148 153 150 143 133 124 115 108 103 100 96 92 91 90 89 89 89 96 108
239 238 235 233 232 234 237 236 232 234 235 231 227 226 225 226 229 234 239 243 242 236 226 213 192 178 170 156 143 131 122 115 112 108 104 99 96 98 105 107 104 107
242 243 242 240 238 238 239 238 234 234 239 239 236 233 231 231 232 234 239 242 242 236 228 228 225 207 197 188 171 153 139 132 128 123 121 119 115 112 118 140 170 186
241 243 244 244 243 243 242 240 238 240 243 243 240 236 233 233 235 236 238 241 243 239 230 224 224 226 227 220 205 188 170 158 154 150 146 144 143 143 143 156 192 219
242 243 244 244 244 244 243 240 240 243 245 244 243 239 234 232 232 233 236 239 242 242 238 231 224 224 230 231 227 221 210 197 193 189 185 182 176 171 169 171 184 208
243 244 244 242 241 241 242 240 240 243 244 243 243 241 237 233 232 231 235 238 239 239 240 236 228 224 228 232 232 232 230 226 224 224 223 220 211 204 201 196 195 203
241 242 242 240 239 238 239 239 240 242 243 241 241 242 240 237 234 234 236 239 238 237 238 237 232 229 234 238 238 239 238 237 237 239 245 249 246 236 228 221 218 216
240 241 241 241 239 238 238 239 240 241 241 239 238 240 241 239 237 236 237 238 237 236 237 237 235 235 238 241 243 244 245 244 242 239 241 246 253 254 247 238 234 231
239 240 241 241 241 239 238 238 239 240 240 240 239 238 240 240 239 239 238 237 236 236 237 237 236 236 238 241 242 243 246 247 246 243 240 239 243 247 248 245 243 241
237 237 238 239 240 241 240 240 240 241 242 242 242 240 240 239 239 240 240 237 236 237 237 236 235 234 235 240 242 242 244 247 247 247 246 244 243 243 245 246 248 249
236 236 236 237 238 240 241 242 242 243 243 244 244 244 243 241 239 240 240 237 237 239 237 234 236 236 235 236 238 240 242 244 246 247 246 245 246 245 245 245 247 251
Height
11032 11032 11032 11032 11032 11031 11030 11029 11028 11027 11027 11025 11024 11023 11021 11021 11020 11020 11019 11019 11018 11017 11017 11016 11015 11015 11013 11013 11012 11011 11010 11009 11008 11007 11006 11005 11004 11003 11002 11002 11001 11000
11035 11034 11034 11033 11033 11033 11033 11032 11030 11029 11029 11028 11027 11026 11024 11023 11023 11022 11022 11021 11020 11020 11019 11018 11018 11017 11016 11015 11014 11013 11012 11011 11010 11009 11008 11007 11007 11006 11005 11004 11003 11002
11036 11036 11036 11035 11035 11035 11034 11034 11033 11032 11031 11030 11029 11028 11027 11026 11026 11025 11024 11024 11023 11022 11021 11021 11020 11019 11018 11017 11017 11016 11015 11014 11013 11012 11011 11010 11009 11008 11007 11006 11005 11004
11038 11038 11037 11037 11037 11036 11036 11035 11035 11034 11033 11032 11031 11031 11030 11029 11028 11028 11027 11026 11026 11025 11024 11023 11022 11021 11021 11020 11019 11018 11017 11016 11015 11014 11013 11013 11012 11011 11010 11009 11008 11007
11039 11039 11038 11038 11038 11038 11037 11037 11036 11036 11035 11034 11033 11033 11032 11032 11031 11030 11029 11029 11028 11028 11027 11026 11025 11024 11023 11022 11022 11021 11020 11019 11018 11017 11016 11015 11014 11014 11013 11012 11011 11010
11039 11039 11039 11039 11039 11038 11038 11038 11037 11037 11037 11036 11035 11034 11034 11034 11033 11033 11032 11031 11030 11030 11029 11028 11027 11027 11026 11025 11024 11023 11022 11021 11021 11020 11019 11018 11018 11017 11016 11015 11014 11014
11039 11039 11040 11040 11039 11039 11039 11039 11038 11038 11037 11037 11036 11036 11036 11035 11035 11034 11034 11033 11032 11032 11031 11030 11029 11029 11028 11027 11026 11025 11025 11024 11023 11023 11022 11021 11021 11020 11019 11018 11018 11017
11039 11039 11039 11040 11040 11039 11039 11039 11039 11038 11038 11038 11037 11037 11036 11036 11036 11036 11035 11034 11033 11033 11032 11032 11031 11030 11029 11029 11028 11027 11027 11026 11025 11025 11024 11024 11023 11023 11022 11022 11021 11021
11038 11038 11038 11039 11040 11040 11040 11039 11039 11039 11038 11038 11038 11038 11037 11037 11037 11037 11036 11036 11035 11034 11033 11033 11032 11032 11031 11030 11029 11029 11028 11028 11027 11027 11026 11026 11025 11025 11025 11025 11024 11024
11037 11037 11038 11038 11039 11040 11040 11040 11040 11040 11039 11039 11039 11039 11038 11038 11037 11037 11037 11037 11036 11036 11035 11034 11034 11033 11032 11032 11031 11030 11030 11029 11029 11028 11028 11028 11027 11027 11027 11027 11027 11027
11036 11036 11037 11038 11039 11040 11040 11040 11040 11040 11040 11040 11040 11040 11039 11039 11039 11038 11038 11038 11038 11037 11037 11036 11035 11035 11034 11033 11033 11032 11032 11031 11031 11030 11030 11029 11029 11029 11029 11029 11029 11029
11035 11036 11036 11037 11038 11038 11038 11039 11039 11040 11040 11040 11040 11041 11040 11040 11039 11039 11039 11039 11039 11039 11038 11038 11037 11036 11035 11035 11034 11034 11033 11033 11033 11033 11033 11032 11032 11031 11031 11031 11031 11031
11033 11034 11035 11035 11036 11037 11037 11038 11038 11039 11040 11040 11040 11040 11041 11040 11040 11040 11039 11039 11039 11039 11039 11039 11038 11037 11037 11036 11035 11035 11035 11035 11035 11035 11035 11035 11035 11034 11034 11033 11033 11034
11031 11032 11033 11033 11034 11035 11036 11037 11037 11038 11038 11039 11040 11040 11040 11040 11040 11040 11040 11039 11039 11039 11039 11039 11039 11038 11038 11037 11036 11036 11036 11036 11036 11036 11036 11036 11037 11037 11036 11036 11036 11036
11028 11029 11030 11031 11032 11033 11034 11035 11036 11036 11037 11037 11038 11039 11039 11040 11040 11040 11040 11040 11039 11039 11039 11039 11039 11039 11038 11038 11037 11037 11036 11036 11036 11036 11036 11036 11037 11037 11037 11038 11038 11038
11026 11027 11028 11029 11030 11031 11032 11033 11034 11035 11035 11036 11036 11037 11038 11038 11038 11039 11039 11039 11039 11039 11039 11038 11038 11038 11038 11038 11038 11037 11037 11037 11037 11036 11036 11037 11037 11037 11037 11038 11038 11039
11023 11024 11025 11026 11028 11029 11029 11031 11032 11033 11034 11034 11035 11035 11036 11036 11037 11037 11038 11038 11038 11038 11038 11037 11037 11037 11037 11038 11038 11038 11037 11037 11037 11037 11037 11037 11037 11037 11038 11038 11038 11039
11020 11021 11022 11024 11025 11026 11027 11028 11029 11030 11032 11032 11033 11033 11034 11034 11034 11035 11036 11036 11036 11036 11036 11036 11036 11036 11036 11037 11037 11038 11038 11037 11037 11037 11037 11037 11037 11038 11038 11038 11038 11039
11016 11017 11019 11020 11022 11023 11024 11025 11026 11028 11029 11029 11030 11030 11031 11031 11032 11033 11033 11033 11034 11034 11034 11034 11035 11035 11035 11036 11036 11037 11037 11037 11037 11036 11036 11036 11037 11037 11037 11038 11038 11038
11011 11013 11014 11016 11017 11019 11020 11021 11023 11024 11025 11026 11026 11027 11027 11028 11029 11030 11030 11031 11031 11031 11032 11032 11032 11033 11034 11034 11034 11035 11036 11036 11036 11036 11036 11036 11035 11036 11036 11036 11037 11037
11005 11007 11009 11011 11012 11014 11015 11017 11018 11019 11021 11022 11022 11023 11024 11025 11026 11027 11027 11028 11029 11029 11029 11029 11030 11031 11031 11032 11032 11033 11033 11034 11035 11035 11035 11035 11035 11035 11035 11035 11035 11036
10999 11001 11003 11005 11007 11009 11010 11011 11013 11014 11016 11017 11018 11019 11020 11021 11022 11023 11024 11025 11026 11026 11026 11026 11027 11028 11029 11029 11030 11030 11031 11032 11032 11033 11034 11034 11034 11034 11034 11034 11034 11034
10993 10994 10996 10999 11001 11003 11005 11006 11008 11009 11010 11012 11014 11015 11016 11017 11018 11019 11020 11021 11022 11023 11023 11024 11025 11025 11026 11026 11027 11028 11029 11029 11030 11030 11031 11032 11032 11032 11032 11032 11032 11032
10986 10988 10990 10992 10994 10997 10999 11001 11002 11003 11004 11006 11009 11010 11011 11012 11014 11015 11016 11017 11018 11018 11019 11020 11021 11021 11022 11023 11024 11025 11025 11026 11026 11027 11027 11028 11029 11029 11030 11030 11030 11030
10979 10981 10983 10985 10988 10990 10993 10995 10996 10997 10999 11001 11003 11005 11006 11007 11008 11009 11010 11012 11013 11014 11015 11016 11016 11017 11018 11019 11020 11021 11022 11022 11023 11023 11024 11025 11026 11027 11027 11028 11028 11027
10972 10974 10976 10978 10981 10983 10986 10988 10989 10992 10994 10996 10997 10999 11000 11002 11003 11003 11005 11007 11008 11008 11009 11010 11011 11012 11013 11014 11015 11016 11017 11018 11019 11020 11020 11021 11023 11023 11024 11025 11025 11024